TimePST,TemperatureF,Dew PointF,Humidity,Sea Level PressureIn,VisibilityMPH,Wind Direction,Wind SpeedMPH,Gust SpeedMPH,PrecipitationIn,Events,Conditions,WindDirDegrees,DateUTC
12:00 AM,40.5,35.8,83,29.94,-9999.0,NNE,2.3,-,N/A,,Unknown,30,2012-11-28 08:00:00
1:00 AM,39.6,35.4,85,29.93,-9999.0,North,1.2,-,N/A,,Unknown,360,2012-11-28 09:00:00
2:00 AM,39.4,35.2,85,29.90,-9999.0,North,1.2,-,N/A,,Unknown,360,2012-11-28 10:00:00
3:00 AM,38.7,35.1,87,29.90,-9999.0,North,1.2,-,N/A,,Unknown,360,2012-11-28 11:00:00
4:00 AM,38,35,84,29.87,,NE,2.3,,,,,40,2012-11-28 12:00:00
4:00 AM,38.3,34.9,87,29.87,-9999.0,NE,2.3,-,N/A,,Unknown,40,2012-11-28 12:00:00
5:00 AM,36.7,33.6,89,29.86,-9999.0,Calm,Calm,-,N/A,,Unknown,0,2012-11-28 13:00:00
6:00 AM,36.3,33.4,89,29.84,-9999.0,ENE,1.2,-,N/A,,Unknown,60,2012-11-28 14:00:00
8:00 AM,39.2,36.3,89,29.77,-9999.0,NNE,3.5,-,N/A,,Unknown,20,2012-11-28 16:00:00
9:00 AM,40.3,36.3,86,29.76,-9999.0,ESE,1.2,-,N/A,,Unknown,120,2012-11-28 17:00:00
10:00 AM,44,38,72,29.76,,SSE,2.3,,,,,160,2012-11-28 18:00:00
11:00 AM,45.1,38.1,76,29.73,-9999.0,NE,3.5,-,N/A,,Unknown,50,2012-11-28 19:00:00
12:00 PM,46.0,37.8,73,29.68,-9999.0,NNE,2.3,-,N/A,,Unknown,30,2012-11-28 20:00:00
1:00 PM,45.5,39.7,80,29.68,-9999.0,East,3.5,-,0.01,,Unknown,90,2012-11-28 21:00:00
2:00 PM,44.8,40.6,85,29.61,-9999.0,North,6.9,-,N/A,,Unknown,10,2012-11-28 22:00:00
3:00 PM,45.1,41.5,87,29.63,-9999.0,East,2.3,-,N/A,,Unknown,90,2012-11-28 23:00:00
4:00 PM,45,42,85,29.63,,NE,3.5,,,,,40,2012-11-29 00:00:00
4:00 PM,45.0,41.9,89,29.63,-9999.0,NE,3.5,-,N/A,,Unknown,40,2012-11-29 00:00:00
5:00 PM,44.6,41.5,89,29.65,-9999.0,NNE,1.2,-,N/A,,Unknown,30,2012-11-29 01:00:00
6:00 PM,45.0,42.1,90,29.64,-9999.0,NE,4.6,-,N/A,,Unknown,40,2012-11-29 02:00:00
7:00 PM,45.5,42.8,90,29.64,-9999.0,NE,5.8,-,N/A,,Unknown,40,2012-11-29 03:00:00
8:00 PM,45.9,42.4,88,29.65,-9999.0,NE,4.6,-,N/A,,Unknown,50,2012-11-29 04:00:00
9:00 PM,46.9,43.0,86,29.66,-9999.0,NNE,5.8,-,N/A,,Unknown,30,2012-11-29 05:00:00
10:00 PM,48,44,80,29.68,,East,2.3,,,,,90,2012-11-29 06:00:00
10:00 PM,48.4,43.7,84,29.68,-9999.0,East,2.3,-,N/A,,Unknown,90,2012-11-29 06:00:00
11:00 PM,52.2,45.9,79,29.71,-9999.0,South,5.8,-,N/A,,Unknown,170,2012-11-29 07:00:00